When you browse on this site, cookies collect data to enhance your experience and personalize the content and advertising you see.
Visit our Privacy Policy to learn more. By continuing to use the site, you agree to this use of cookies and data.
  • In Latvia
  • List of Countries
  • For 7 days
  • Water Temperature
  • Weather Map
  • Weather Widgets
  • user-avatar
    Login

    Hourly Weather Eisenstadt

    Today, 10 April, Friday

    Time Temperature Precipitation Wind Pressure Humidity
    00:00 +12°C° 0 mm 2 mps 727 mmHg 59%
    01:00 +12°C° 0 mm 2 mps 727 mmHg 60%
    02:00 +10°C° 0 mm 2 mps 727 mmHg 62%
    03:00 +10°C° 0 mm 2 mps 727 mmHg 64%
    04:00 +10°C° 0 mm 2 mps 727 mmHg 65%
    05:00 +10°C° 0 mm 2 mps 727 mmHg 66%
    06:00 +11°C° 0 mm 3 mps 727 mmHg 67%
    07:00 +12°C° 0 mm 3 mps 728 mmHg 68%
    08:00 +13°C° 0 mm 3 mps 728 mmHg 63%
    09:00 +16°C° 0 mm 3 mps 728 mmHg 58%
    10:00 +17°C° 0 mm 3 mps 728 mmHg 54%
    11:00 +17°C° 0 mm 3 mps 728 mmHg 53%
    12:00 +18°C° 0 mm 3 mps 728 mmHg 52%
    13:00 +18°C° 0 mm 3 mps 728 mmHg 51%
    14:00 +18°C° 0 mm 3 mps 727 mmHg 53%
    15:00 +17°C° 0 mm 3 mps 727 mmHg 55%
    16:00 +17°C° 0 mm 3 mps 726 mmHg 57%
    17:00 +15°C° 0 mm 2 mps 726 mmHg 62%
    18:00 +14°C° 0 mm 2 mps 726 mmHg 68%
    19:00 +12°C° 0 mm 1 mps 726 mmHg 73%
    20:00 +12°C° 0 mm 1 mps 726 mmHg 75%
    21:00 +11°C° 0 mm 1 mps 727 mmHg 77%
    22:00 +10°C° 0 mm 1 mps 727 mmHg 78%
    23:00 +10°C° 0 mm 1 mps 727 mmHg 79%

    Tomorrow, 11 April, Saturday

    Time Temperature Precipitation Wind Pressure Humidity
    00:00 +10°C° 0 mm 1 mps 727 mmHg 80%
    01:00 +9°C° 0 mm 0 mps 727 mmHg 81%
    02:00 +9°C° 0 mm 0 mps 727 mmHg 82%
    03:00 +9°C° 0 mm 0 mps 727 mmHg 83%
    04:00 +8°C° 0 mm 0 mps 727 mmHg 84%
    05:00 +9°C° 0 mm 0 mps 727 mmHg 81%
    06:00 +10°C° 0 mm 0 mps 727 mmHg 78%
    07:00 +11°C° 0 mm 0 mps 728 mmHg 75%
    08:00 +13°C° 0 mm 1 mps 728 mmHg 71%
    09:00 +14°C° 0 mm 1 mps 728 mmHg 66%
    10:00 +15°C° 0 mm 1 mps 728 mmHg 61%
    11:00 +15°C° 0.1 mm 1 mps 728 mmHg 60%
    12:00 +16°C° 0.1 mm 2 mps 728 mmHg 58%
    13:00 +16°C° 0.1 mm 2 mps 727 mmHg 57%
    14:00 +16°C° 0.1 mm 2 mps 727 mmHg 58%
    15:00 +16°C° 0.1 mm 1 mps 727 mmHg 60%
    16:00 +15°C° 0.1 mm 1 mps 726 mmHg 61%
    17:00 +14°C° 0 mm 1 mps 726 mmHg 65%
    18:00 +13°C° 0 mm 1 mps 726 mmHg 68%
    19:00 +11°C° 0 mm 0 mps 727 mmHg 72%
    20:00 +11°C° 0 mm 0 mps 727 mmHg 72%
    21:00 +10°C° 0 mm 0 mps 727 mmHg 73%
    22:00 +10°C° 0 mm 0 mps 727 mmHg 73%
    23:00 +10°C° 0 mm 0 mps 727 mmHg 73%

    Day after tomorrow, 12 April, Sunday

    Time Temperature Precipitation Wind Pressure Humidity
    00:00 +10°C° 0 mm 0 mps 727 mmHg 74%
    01:00 +9°C° 0 mm 0 mps 727 mmHg 74%
    02:00 +10°C° 0 mm 1 mps 727 mmHg 77%
    03:00 +9°C° 0 mm 1 mps 726 mmHg 79%
    04:00 +9°C° 0 mm 1 mps 726 mmHg 81%
    05:00 +9°C° 0 mm 1 mps 726 mmHg 78%
    06:00 +10°C° 0 mm 1 mps 726 mmHg 75%
    07:00 +11°C° 0 mm 1 mps 726 mmHg 73%
    08:00 +13°C° 0 mm 2 mps 726 mmHg 67%
    09:00 +15°C° 0 mm 2 mps 725 mmHg 62%
    10:00 +17°C° 0 mm 3 mps 725 mmHg 56%
    11:00 +18°C° 0 mm 3 mps 725 mmHg 54%
    12:00 +19°C° 0 mm 4 mps 724 mmHg 52%
    13:00 +20°C° 0 mm 4 mps 724 mmHg 50%
    14:00 +20°C° 0.1 mm 4 mps 723 mmHg 51%
    15:00 +19°C° 0.1 mm 4 mps 723 mmHg 52%
    16:00 +19°C° 0.1 mm 4 mps 722 mmHg 53%
    17:00 +18°C° 0 mm 4 mps 722 mmHg 59%
    18:00 +16°C° 0 mm 3 mps 721 mmHg 66%
    19:00 +13°C° 0 mm 3 mps 721 mmHg 72%
    20:00 +12°C° 0 mm 3 mps 721 mmHg 74%
    21:00 +12°C° 0 mm 3 mps 720 mmHg 76%
    22:00 +11°C° 0 mm 3 mps 720 mmHg 78%
    23:00 +12°C° 0 mm 2 mps 720 mmHg 78%

    13 April, Monday

    Time Temperature Precipitation Wind Pressure Humidity
    00:00 +10°C° 0 mm 2 mps 720 mmHg 78%
    01:00 +9°C° 0 mm 2 mps 719 mmHg 77%
    02:00 +9°C° 0 mm 2 mps 719 mmHg 77%
    03:00 +10°C° 0 mm 1 mps 719 mmHg 77%
    04:00 +10°C° 0 mm 1 mps 719 mmHg 77%
    05:00 +11°C° 0 mm 1 mps 719 mmHg 75%
    06:00 +12°C° 0 mm 1 mps 719 mmHg 73%
    07:00 +13°C° 0 mm 1 mps 719 mmHg 72%
    08:00 +15°C° 0 mm 1 mps 719 mmHg 64%
    09:00 +18°C° 0 mm 1 mps 719 mmHg 57%
    10:00 +20°C° 0 mm 1 mps 719 mmHg 50%
    11:00 +20°C° 0.4 mm 1 mps 719 mmHg 50%
    12:00 +19°C° 0.4 mm 2 mps 718 mmHg 51%
    13:00 +19°C° 0.4 mm 2 mps 718 mmHg 52%
    14:00 +18°C° 0.7 mm 2 mps 717 mmHg 58%
    15:00 +17°C° 0.7 mm 3 mps 717 mmHg 65%
    16:00 +14°C° 0.7 mm 3 mps 716 mmHg 71%
    17:00 +13°C° 0.5 mm 3 mps 716 mmHg 75%
    18:00 +13°C° 0.5 mm 2 mps 716 mmHg 79%
    19:00 +12°C° 0.5 mm 1 mps 716 mmHg 83%
    20:00 +12°C° 0 mm 1 mps 716 mmHg 82%
    21:00 +11°C° 0 mm 1 mps 716 mmHg 82%
    22:00 +11°C° 0 mm 1 mps 716 mmHg 81%
    23:00 +10°C° 0 mm 2 mps 716 mmHg 81%

    14 April, Tuesday

    Time Temperature Precipitation Wind Pressure Humidity
    00:00 +10°C° 0 mm 2 mps 716 mmHg 81%
    01:00 +10°C° 0 mm 2 mps 716 mmHg 81%
    02:00 +9°C° 0.5 mm 3 mps 716 mmHg 84%
    03:00 +7°C° 0.5 mm 5 mps 716 mmHg 86%
    04:00 +5°C° 0.5 mm 6 mps 716 mmHg 89%
    05:00 +4°C° 0.4 mm 6 mps 717 mmHg 87%
    06:00 +3°C° 0.4 mm 6 mps 717 mmHg 85%
    07:00 +2°C° 0.4 mm 7 mps 718 mmHg 83%
    08:00 +3°C° 0 mm 7 mps 719 mmHg 72%
    09:00 +3°C° 0 mm 7 mps 719 mmHg 61%
    10:00 +4°C° 0 mm 8 mps 720 mmHg 50%
    11:00 +5°C° 0 mm 7 mps 721 mmHg 46%
    12:00 +6°C° 0 mm 7 mps 721 mmHg 43%
    13:00 +8°C° 0 mm 7 mps 722 mmHg 39%
    14:00 +7°C° 0 mm 6 mps 722 mmHg 39%
    15:00 +7°C° 0 mm 6 mps 722 mmHg 38%
    16:00 +7°C° 0 mm 5 mps 722 mmHg 38%
    17:00 +6°C° 0 mm 4 mps 722 mmHg 43%
    18:00 +4°C° 0 mm 3 mps 722 mmHg 49%
    19:00 +3°C° 0 mm 2 mps 722 mmHg 54%
    20:00 +4°C° 0 mm 1 mps 722 mmHg 55%
    21:00 +3°C° 0 mm 1 mps 723 mmHg 56%
    22:00 +1°C° 0 mm 0 mps 723 mmHg 57%
    23:00 +2°C° 0 mm 1 mps 723 mmHg 57%

    15 April, Wednesday

    Time Temperature Precipitation Wind Pressure Humidity
    00:00 +2°C° 0 mm 1 mps 723 mmHg 58%
    01:00 +2°C° 0 mm 1 mps 723 mmHg 58%
    02:00 +1°C° 0 mm 1 mps 723 mmHg 59%
    03:00 +1°C° 0 mm 1 mps 723 mmHg 59%
    04:00 0°C° 0 mm 0 mps 722 mmHg 59%
    05:00 +2°C° 0 mm 1 mps 722 mmHg 55%
    06:00 +3°C° 0 mm 1 mps 723 mmHg 52%
    07:00 +5°C° 0 mm 1 mps 723 mmHg 48%
    08:00 +5°C° 0 mm 2 mps 723 mmHg 44%
    09:00 +7°C° 0 mm 2 mps 723 mmHg 40%
    10:00 +8°C° 0 mm 3 mps 723 mmHg 36%
    11:00 +9°C° 0 mm 3 mps 723 mmHg 35%
    12:00 +10°C° 0 mm 3 mps 723 mmHg 33%
    13:00 +11°C° 0 mm 3 mps 723 mmHg 32%
    14:00 +11°C° 0 mm 3 mps 722 mmHg 34%
    15:00 +11°C° 0 mm 3 mps 722 mmHg 35%
    16:00 +11°C° 0 mm 3 mps 722 mmHg 36%
    17:00 +9°C° 0 mm 2 mps 722 mmHg 44%
    18:00 +7°C° 0 mm 2 mps 722 mmHg 51%
    19:00 +6°C° 0 mm 1 mps 722 mmHg 58%
    20:00 +6°C° 0 mm 1 mps 722 mmHg 60%
    21:00 +5°C° 0 mm 1 mps 723 mmHg 61%
    22:00 +4°C° 0 mm 1 mps 723 mmHg 63%
    23:00 +4°C° 0 mm 1 mps 723 mmHg 63%
    Show more